Regional Weather Roundup
Issued by NWS

Home | Current Version | Previous Version | Text Only | Print | Product List | Glossary Off
Versions: 1 2 3 4 5 6 7 8 9 10 11 12 13 14 15 16 17 18 19 20 21 22 23 24 25 26 27 28 29 30 31 32 33 34 35 36 37 38 39 40 41 42 43 44 45 46 47 48 49 50

000
ASUS43 KLOT 220609
RWRIL

ILLINOIS REGIONAL WEATHER ROUNDUP
NATIONAL WEATHER SERVICE CHICAGO/ROMEOVILLE IL
100 AM CDT SUN OCT 22 2017

NOTE: "FAIR" INDICATES FEW OR NO CLOUDS BELOW 12,000 FEET WITH NO
SIGNIFICANT WEATHER AND/OR OBSTRUCTIONS TO VISIBILITY.

* THESE STATIONS ARE NOT UNDER NWS QUALITY CONTROL. THEY ALSO MAY NOT
  REPORT WEATHER SUCH AS PRECIPITATION OR FOG.

ILZ001-002-007-009-015-016-024-220700-
NORTHWEST ILLINOIS

CITY           SKY/WX    TMP DP  RH WIND       PRES   REMARKS
MOLINE         CLOUDY    71  57  61 S15       29.87S
6HR MIN TEMP:  71; 6HR MAX TEMP:  74;

STERLING*      CLOUDY    69  58  67 VRB7G17     N/A
SAVANNA*       MOCLDY    69  58  66 S14G22    29.88S
$$

ILZ003-004-008-010-011-017-018-220700-
NORTH CENTRAL ILLINOIS

CITY           SKY/WX    TMP DP  RH WIND       PRES   REMARKS
ROCKFORD       CLOUDY    68  56  65 S18G29    29.95S
6HR MIN TEMP:  68; 6HR MAX TEMP:  71;

FREEPORT*      CLOUDY    67  56  67 S17G23    29.93S
ROCHELLE*      CLOUDY    66  57  71 S14G22    29.95F
DE KALB*       CLOUDY    66  56  71 S17       29.98S
PERU*          MOCLDY    66  55  69 S17G23    29.96F
$$

ILZ005-006-012>014-019>023-220700-
NORTHEAST ILLINOIS

CITY           SKY/WX    TMP DP  RH WIND       PRES   REMARKS
CHICAGO-OHARE  PTCLDY    68  54  60 S16       29.99F
6HR MIN TEMP:  67; 6HR MAX TEMP:  73;

CHICAGO-MIDWAY PTCLDY    67  54  63 S14       30.01S
6HR MIN TEMP:  67; 6HR MAX TEMP:  74;

AURORA         CLOUDY    68  56  65 S13       29.98F
6HR MIN TEMP:  67; 6HR MAX TEMP:  71;

LANSING*       CLEAR     64  54  71 S13G21    30.03F
JOLIET*        CLOUDY    68  56  64 S9G17     30.00F
WAUKEGAN       CLOUDY    68  56  65 S16G24    29.98S
6HR MIN TEMP:  67; 6HR MAX TEMP:  73;

DUPAGE AIRPORT CLOUDY    66  56  70 S15G22    29.98F
6HR MIN TEMP:  66; 6HR MAX TEMP:  70;

KANKAKEE*      MOCLDY    66  53  63 S14       30.04F
WHEELING       CLOUDY    68  56  65 S16       30.01S
6HR MIN TEMP:  68; 6HR MAX TEMP:  74;

MORRIS*        CLOUDY    67  55  63 S15       29.98S
ROMEOVILLE*    CLOUDY    65  55  68 S12       30.01S
NORTHERLY ISL    N/A     67  51  56 S12         N/A
$$

LMZ740>746-220700-
SOUTHERN LAKE MICHIGAN

STATION/POSITION SKY/WX   TEMP    WIND        PRES    VSBY  WAVE
                          AIR SEA DIR/SP/G                  HT/PER
                          (F)     (DEG/KT/KT) (MB)    (MI)  (FT/S)
SOUTHERN BUOY              64 61  170/ 17/ 21 1016.2          3/ 4
WILMETTE HARBOR            66 59  180/ 14/ 21   N/A           3/ 3
HARRISON CRIB              67     190/ 21/ 23   N/A
BURNHAM HARBOR             67     180/  9/ 17   N/A
CALUMET HARBOR             67     170/ 11/ 19 1015.7F
BURNS HARBOR               66     180/ 14/ 22 1017.3F
MICHIGAN CITY              66     160/ 14/ 17   N/A
MICHIGAN CITY 6N           64 58  180/ 16/ 21   N/A           2/ 3
ST. JOSEPH                 64 59  180/ 12/ 16 1017.9          2/ 3
$$

ILZ025>027-034>036-040-047-049-050-058-095>099-220700-
WEST-CENTRAL ILLINOIS

CITY           SKY/WX    TMP DP  RH WIND       PRES   REMARKS
QUINCY         RAIN      68  62  81 S13       29.87F
MACOMB*        CLOUDY    70  59  68 S17G26    29.92R
JACKSONVILLE*  CLOUDY    69  59  70 SE14G22   29.93F
PITTSFIELD*    CLOUDY    71  61  71 SE14      29.92F
$$

ILZ028>032-037-038-041>044-048-051>054-059>061-220700-
CENTRAL ILLINOIS

CITY           SKY/WX    TMP DP  RH WIND       PRES   REMARKS
PONTIAC        MOCLDY    67  57  70 S17G23    30.00F
BLOOMINGTON    CLEAR     65  56  72 S20       30.00F
DECATUR        CLOUDY    67  56  67 S14       30.01F
PEORIA         CLOUDY    70  59  68 S17G26    29.94F
6HR MIN TEMP:  69; 6HR MAX TEMP:  73;

LACON*         PTCLDY    68  57  68 S10G20    29.94S
LINCOLN*       CLOUDY    68  59  73 S12G20    29.97F
SPRINGFIELD    PTCLDY    71  60  68 S18G28    29.96F
6HR MIN TEMP:  71; 6HR MAX TEMP:  74;

TAYLORVILLE    PTCLDY    67  58  73 SE9G16    30.00F
6HR MIN TEMP:  67; 6HR MAX TEMP:  70;

$$

ILZ033-039-045-046-055>057-062-063-220700-
EAST-CENTRAL ILLINOIS

CITY           SKY/WX    TMP DP  RH WIND       PRES   REMARKS
CHAMPAIGN      CLOUDY    66  55  67 S13       30.05F
DANVILLE*      CLOUDY    65  53  63 S14       30.05S
RANTOUL*       CLOUDY    66  57  72 S12       30.05F
MATTOON        CLOUDY    65  57  75 S9        30.06S
PARIS*         CLOUDY    65  55  70 S13       30.09S THUNDER
$$

ILZ079-100>102-220700-
SOUTHWEST ILLINOIS

CITY           SKY/WX    TMP DP  RH WIND       PRES   REMARKS
ALTON          CLOUDY    68  62  81 SE8       29.98F
BELLEVILLE     CLOUDY    71  60  67 S9        30.02F
CAHOKIA*       CLOUDY    73  61  65 SE15G21   29.97F
SPARTA*        MOCLDY    69  61  75 S8        30.03S
$$

ILZ064>066-069>071-074>076-080>082-084>086-088>090-092>094-220700-
SOUTH-CENTRAL ILLINOIS

CITY           SKY/WX    TMP DP  RH WIND       PRES   REMARKS
CARBONDALE     PTCLDY    69  61  75 S13       30.02F
6HR MIN TEMP:  67; 6HR MAX TEMP:  71;

CAIRO*         CLOUDY    69  60  74 SE14G21   30.03F
EFFINGHAM*     CLOUDY    67  58  74 SE6       30.08S
MARION         CLOUDY    70  61  73 S9        30.04F
MT. VERNON     PTCLDY    66  60  81 S6        30.05F
CENTRALIA*     MOCLDY    68  61  77 S8G16     30.03S
SALEM*         CLOUDY    68  59  72 SE5       30.05S
METROPOLIS*    CLOUDY    70  60  71 S7        30.07S
$$

ILZ067-068-072-073-078-083-087-091-220700-
SOUTHEAST ILLINOIS

CITY           SKY/WX    TMP DP  RH WIND       PRES   REMARKS
LAWRENCEVILLE  PTCLDY    65  56  72 S9        30.09S
FLORA*         CLOUDY    65  59  80 SE8       30.06F
FAIRFIELD*     PTCLDY    66  59  79 CALM      30.05F
HARRISBURG*    MOCLDY    65  60  84 SE6       30.06F
ROBINSON*      CLOUDY    61  54  78 SE6       30.10S
CARMI*         PTCLDY    65  59  80 S9        30.06S
$$

ABBREVIATIONS USED IN REMARKS
   TC - TEMPERATURE IN CELSIUS
  WCI - WIND CHILL INDEX
   HX - HEAT INDEX
  VSB - VISIBILITY
$$




USA.gov is the U.S. government's official web portal to all federal, state and local government web resources and services.